Terug naar catalogus

STARLINK-36178

ActiefCommunicatieVLEO
NORAD 67025·PAYLOAD·🇺🇸 United States

Gelanceerd Dec 10, 2025 vanaf Vandenberg Space Force Base

Loading…

Volgende Passages (komende 24 uur)

TLE

VersSource: CelesTrak SupGP

Epoch: Sep 15, 2026, 03:47 UTC

1 67025C 25293Y   26258.15812500  .00045356  00000+0  38002-2 0  2581
2 67025  70.0014 336.6880 0003470 268.1501 307.3193 14.98314905    16

Volg STARLINK-36178 in realtime met AllMySat

Download on the App Store